Location: Newark
(57.7279°N, 5.6916°W)
Time: 09:39:10
(UTC+00:00)

N. Korean satellite - Pass Details

Date: 15 December 2019
Orbit: 454 x 507 km, 97.2° (Epoch: 27 January)

Event Time Altitude Azimuth Distance (km) Brightness Sun altitude
Rises 16:40:21 0° 151° (SSE) 2,596 10.3 -7.6°
Reaches altitude 10° 16:42:28 10° 147° (SSE) 1,711 9.3 -7.8°
Maximum altitude 16:46:04 55° 70° (ENE) 610 6.7 -8.2°
Drops below altitude 10° 16:49:39 10° 352° (N) 1,699 9.1 -8.6°
Sets 16:51:45 0° 348° (NNW) 2,577 10.1 -8.9°
